Dewpoint
49 49 50 50 50 50 51 51 51 50 49 48 40 44 42 40 34 50 52 52 53 32 26 27 29 25 29 32 31 31 28 25 27 29 31 29 32 28 30 31 30 30 30 27 22 25 19 25 16 22 21 26 28 34 33 32 32 26 18 29 23 26 21 22 22 27 24 21 23 21 23 25 24 23 21 22 22 22 21 21 21 20 21 20 21 19 22
49 49 49 50 50 50 51 51 51 50 49 45 46 47 37 40 34 40 56 52 45 48 28 26 24 25 31 31 29 34 34 31 31 28 32 31 23 29 29 31 31 30 30 24 25 27 18 25 25 21 20 22 33 34 34 31 23 27 24 21 30 24 20 20 22 15 19 21 19 20 24 24 21 21 21 22 24 21 22 21 21 19 22 21 19 18 21
49 49 49 49 50 50 50 51 51 50 50 47 48 39 34 31 36 39 39 33 42 29 34 26 26 25 28 27 28 31 31 33 31 32 31 31 25 25 27 31 30 29 29 28 24 27 24 18 19 18 18 20 32 32 31 28 25 32 32 32 30 26 25 22 14 10 9 8 10 14 22 21 23 24 24 22 22 21 20 21 21 19 22 22 20 22 23
48 48 49 49 50 50 50 50 50 49 49 48 52 39 40 24 26 35 34 32 29 21 28 30 27 26 26 22 24 24 28 33 34 34 31 28 29 24 30 28 28 30 31 28 26 27 27 20 20 20 19 21 31 32 31 30 31 30 30 28 27 23 22 20 20 14 13 16 18 21 24 22 20 22 22 21 22 23 21 21 21 22 22 21 22 23 23
48 48 49 49 49 50 50 50 50 49 49 45 50 45 35 29 30 28 28 36 24 23 26 27 26 25 29 20 24 23 28 31 32 37 28 30 31 29 31 31 29 28 30 27 25 26 28 23 17 18 18 19 23 30 31 30 30 30 30 29 25 22 22 23 23 23 22 20 19 20 22 19 19 21 22 24 22 22 20 22 21 24 21 20 23 25 24
48 48 48 49 49 49 50 49 49 49 49 44 51 31 31 26 20 25 29 32 30 33 20 34 30 34 29 25 28 27 27 27 21 29 28 29 26 30 29 29 31 27 30 29 19 27 28 25 18 17 16 20 21 22 29 27 30 29 27 25 22 19 19 20 16 18 21 21 19 17 19 19 19 21 22 23 24 23 19 20 23 24 21 20 22 24 24
47 47 48 48 48 49 50 49 48 48 48 49 48 35 32 28 19 22 32 29 22 27 32 35 35 31 27 25 31 25 26 26 30 28 28 29 26 29 19 30 31 29 27 28 21 25 17 18 21 17 18 21 20 20 24 28 28 27 20 21 23 21 23 21 19 18 19 21 22 22 22 22 22 23 23 23 25 24 23 23 23 25 24 25 25 25 24
48 48 48 48 48 49 49 50 49 48 48 53 37 30 37 29 28 21 31 28 24 22 23 28 34 26 29 25 29 30 30 30 28 27 30 25 29 27 27 32 29 29 29 29 22 25 24 15 15 21 17 19 19 20 19 22 22 22 20 20 22 21 20 20 19 19 21 22 25 22 24 22 21 21 23 24 25 25 26 24 24 26 25 25 25 25 25
48 48 48 48 48 48 49 49 49 48 48 43 38 31 26 27 27 42 36 23 22 24 24 27 30 23 26 24 28 30 32 30 33 31 31 33 30 30 30 35 31 31 28 30 30 31 29 25 23 26 20 18 24 21 20 18 21 20 22 20 20 16 20 19 20 20 19 22 22 25 25 25 23 22 23 23 24 24 25 25 26 24 24 25 25 26 26
48 48 48 48 48 48 49 49 49 47 48 43 40 24 25 25 23 29 33 25 23 23 23 21 29 25 32 34 31 31 32 32 31 23 33 31 33 33 33 33 27 31 27 28 32 32 30 29 28 27 29 22 23 25 25 23 23 23 23 22 23 19 21 22 21 17 18 23 24 23 22 22 23 25 24 24 25 25 26 26 27 27 25 23 24 25 26
47 48 48 48 48 48 48 49 49 48 45 44 42 33 27 34 40 37 28 31 24 25 25 24 27 33 32 34 31 29 30 27 33 25 26 32 33 31 30 33 26 23 24 31 31 30 31 29 27 27 28 26 25 25 26 28 24 22 23 20 22 19 20 22 18 15 19 19 20 21 22 18 18 25 31 28 24 27 25 26 28 29 28 26 26 26 27
47 47 47 47 47 47 48 48 48 48 45 44 47 31 34 25 39 33 29 26 27 23 22 23 32 33 34 32 33 31 28 28 32 34 25 33 33 30 31 29 22 20 30 29 28 29 31 31 29 28 28 27 27 27 28 28 24 22 20 21 22 20 20 22 17 16 19 20 21 15 3 18 27 32 30 25 25 27 26 27 30 30 30 29 28 28 28
47 47 47 47 47 47 47 48 48 48 47 43 47 40 29 28 41 23 27 27 24 22 21 26 27 27 27 30 31 29 30 32 32 31 31 33 31 30 32 31 28 34 30 31 31 30 30 27 28 28 28 28 28 29 28 28 26 24 19 19 21 22 22 22 19 21 23 19 17 2 8 13 18 27 28 30 29 28 26 25 28 29 28 28 29 29 30
48 47 47 47 47 47 47 47 48 48 47 44 35 31 32 31 43 30 27 22 23 22 24 27 25 23 26 31 31 30 30 27 21 23 31 33 32 33 33 31 31 30 31 31 30 28 26 21 21 21 23 23 24 21 31 28 27 26 25 24 23 20 19 21 21 18 12 15 15 14 16 18 25 27 27 27 25 27 24 20 20 28 27 29 30 30 28
49 48 47 47 47 47 47 47 47 48 48 47 40 35 33 31 33 45 28 31 24 24 24 26 23 26 29 29 29 21 23 24 22 25 32 32 33 30 31 31 31 31 30 28 26 25 20 19 17 16 17 14 7 11 27 21 26 25 25 23 20 20 18 20 15 16 18 17 17 16 13 5 18 30 31 33 30 31 31 24 24 27 28 30 28 27 28
49 49 48 47 47 47 47 47 47 47 48 47 43 37 36 37 35 40 39 31 28 23 30 37 35 32 30 29 31 26 23 23 21 24 23 30 32 30 30 30 30 30 29 28 22 22 22 15 12 10 11 13 13 11 12 21 23 23 23 23 24 22 22 19 20 20 17 16 14 12 7 14 24 31 32 32 31 34 29 25 23 29 27 28 29 29 30
49 49 48 48 47 47 47 47 47 47 47 47 43 42 39 40 38 41 37 26 27 18 35 40 37 35 28 26 25 20 24 24 21 20 20 24 32 32 29 30 30 31 31 27 22 21 21 18 16 17 18 20 9 11 20 16 15 20 23 22 23 20 22 21 20 15 19 16 15 15 14 18 26 32 30 29 34 33 28 18 18 30 32 32 32 31 32
50 49 49 48 47 47 47 47 47 47 47 48 44 39 40 42 39 39 40 25 19 25 32 40 37 28 27 32 23 31 29 26 26 27 25 30 30 30 30 31 29 32 33 26 20 21 17 17 16 16 17 24 23 15 9 16 9 10 13 18 22 20 20 22 21 20 22 22 20 18 20 23 28 30 28 33 34 28 19 15 25 30 30 29 29 32 33
49 49 49 48 47 47 47 47 46 46 47 48 47 45 43 41 41 40 46 26 21 9 37 31 34 39 38 37 35 33 35 39 38 25 25 23 27 33 31 31 33 27 32 27 21 20 19 15 15 15 18 19 17 15 15 7 12 13 11 8 17 20 19 19 17 16 17 19 20 19 19 20 32 31 33 34 28 16 13 24 29 28 27 27 30 30 32
50 49 49 48 47 47 47 47 46 46 47 47 47 41 40 42 42 40 43 22 22 22 32 32 33 41 36 41 29 28 30 30 30 27 24 22 30 33 28 25 28 28 27 27 21 18 18 18 19 16 18 21 18 19 12 13 16 8 9 13 9 21 15 22 19 19 17 17 16 18 10 21 33 33 29 30 21 21 20 23 26 28 28 29 30 32 34
50 49 49 48 48 47 47 47 47 47 47 47 47 45 43 43 44 43 41 42 27 14 25 34 33 36 35 37 38 40 41 37 32 22 31 27 30 31 18 17 27 22 23 22 20 20 18 18 20 16 20 16 17 14 17 16 19 24 18 18 18 21 12 18 20 24 18 19 14 14 22 28 33 26 15 29 24 20 22 28 28 28 29 29 30 32 34
50 49 48 48 48 47 47 47 47 47 47 48 47 46 42 45 45 45 43 40 35 23 29 35 38 39 40 39 39 39 40 40 41 36 30 26 31 29 29 28 27 23 23 24 19 19 20 22 21 17 19 19 20 17 14 13 14 19 20 17 12 20 20 23 13 20 16 17 21 19 19 31 34 27 21 20 21 25 25 26 26 26 27 30 31 33 34
50 49 49 49 48 47 47 47 47 47 47 47 47 43 38 41 42 44 44 37 32 32 32 34 34 38 39 39 39 39 40 39 40 37 37 32 25 28 25 30 28 34 29 28 25 24 23 23 19 21 19 20 23 21 16 19 19 18 16 17 19 24 20 24 19 24 23 22 21 20 18 19 20 28 30 27 26 26 28 28 28 30 31 32 33 34 34
50 50 49 48 47 47 47 46 47 47 47 47 47 45 41 42 44 44 43 41 26 30 30 31 29 29 33 37 39 38 38 40 39 40 37 39 28 27 30 31 35 29 29 33 34 28 23 23 24 20 16 23 17 16 12 18 22 22 19 24 21 24 25 20 19 23 17 15 18 19 19 20 22 23 24 28 30 30 30 30 31 31 33 34 34 35 34
49 49 49 48 47 46 47 46 47 47 47 47 46 46 45 45 45 44 39 23 22 19 13 25 28 41 39 39 39 39 39 39 39 38 39 38 38 32 29 35 34 33 30 34 30 30 23 20 23 21 14 24 21 18 20 15 20 23 18 22 20 23 23 20 21 18 15 14 13 15 15 17 18 20 21 22 24 27 28 31 32 33 34 34 35 34 33
49 49 49 49 48 47 47 46 46 47 47 47 46 45 44 44 45 45 44 39 28 19 20 21 30 39 40 40 41 40 40 38 38 38 38 39 39 38 35 33 32 33 32 31 30 27 25 22 21 22 20 24 20 18 19 21 21 22 18 17 14 19 18 19 21 20 21 21 21 21 21 22 23 24 26 27 29 31 31 33 34 34 34 35 34 33 34
49 49 49 49 48 48 47 46 46 47 47 47 46 45 44 44 45 44 41 41 31 19 17 12 25 36 40 39 40 38 38 38 36 36 37 38 38 37 36 34 34 30 30 25 25 24 24 22 22 23 24 25 21 21 21 21 17 19 19 16 23 21 21 17 17 19 19 18 15 16 18 17 16 26 30 30 32 32 33 32 32 32 34 34 34 34 34
49 49 49 49 49 48 47 46 46 47 47 47 46 45 44 44 46 45 45 40 42 26 24 23 19 30 37 40 39 38 38 36 36 37 37 38 39 37 34 34 33 28 28 26 22 22 24 22 26 24 23 23 19 23 23 21 25 22 23 18 22 17 16 19 21 19 13 11 14 22 25 22 19 23 27 31 33 33 32 32 30 30 31 32 33 32 32
49 49 49 49 48 48 48 47 47 47 47 46 46 45 44 45 47 47 46 46 43 36 31 28 32 20 15 32 38 38 38 37 36 36 37 37 38 36 35 34 31 29 25 24 24 24 25 27 25 23 23 26 20 21 23 20 24 19 14 15 22 19 18 17 14 16 15 16 17 19 21 18 19 23 26 29 34 33 32 32 31 31 31 31 32 33 33
49 49 48 48 48 48 48 47 47 47 47 46 46 40 33 40 47 46 46 46 43 42 26 20 15 17 34 38 38 38 38 37 37 37 36 35 34 35 32 31 29 30 27 25 24 23 25 23 24 27 28 31 22 25 21 25 21 17 16 16 18 21 21 20 19 17 16 18 20 24 24 24 26 29 30 31 31 31 30 29 30 31 32 32 33 33 33
49 49 49 48 48 48 48 48 47 47 46 46 44 36 33 26 42 46 46 46 46 38 30 20 19 26 30 36 38 37 36 35 34 34 34 33 31 30 29 30 28 30 25 26 23 24 25 22 24 26 28 29 27 26 25 23 25 24 16 14 22 22 23 24 24 23 23 23 25 27 28 28 29 29 28 28 29 30 31 31 33 33 33 32 33 33 34
49 49 49 48 48 48 48 48 48 47 47 45 43 40 38 38 44 46 46 45 44 38 27 21 17 19 19 31 36 38 38 37 36 35 34 33 31 31 29 30 28 31 31 28 26 27 27 27 26 27 26 31 30 25 25 25 22 21 17 17 26 26 29 27 27 28 28 29 28 28 26 26 27 26 24 29 31 32 33 33 33 33 33 33 32 31 32
49 49 49 49 48 48 48 48 48 47 46 46 47 47 47 46 46 46 46 46 43 31 26 21 18 18 18 24 32 35 37 36 34 34 31 35 31 31 30 31 31 33 38 27 25 25 29 28 27 25 29 27 25 26 26 25 21 20 19 19 20 22 24 27 28 28 28 28 28 26 25 23 23 25 28 31 32 32 32 32 32 31 30 29 30 30 30
49 49 49 48 48 48 48 48 48 48 47 47 45 46 47 46 47 46 46 43 36 30 22 20 14 13 16 23 17 31 37 32 29 33 30 33 34 34 31 32 33 28 32 26 28 31 32 29 28 28 28 28 28 26 25 24 25 24 23 23 23 25 25 26 26 27 28 29 30 29 28 27 28 28 30 30 29 30 30 31 29 29 30 30 30 31 30
49 49 49 48 48 48 48 47 48 47 45 45 45 46 46 45 46 45 45 43 33 26 22 23 21 22 18 19 18 28 35 34 31 31 30 31 33 31 32 30 30 27 29 34 29 29 29 30 30 28 28 28 26 25 25 23 23 23 24 24 23 24 25 24 24 27 29 30 30 31 32 31 31 30 30 30 30 30 29 30 30 30 30 31 31 31 30
49 49 48 48 48 48 48 47 46 45 40 40 43 46 45 46 45 46 46 45 40 32 25 23 21 21 20 13 15 26 35 31 31 29 30 30 31 33 31 30 28 31 34 28 28 29 29 31 29 28 28 24 25 26 25 25 24 23 22 21 20 21 21 20 21 23 25 27 29 31 31 32 32 32 31 31 31 30 29 30 30 30 31 31 31 31 30
48 48 47 47 48 45 40 38 45 45 40 45 45 45 45 45 46 45 43 40 37 35 30 28 24 23 20 17 27 28 32 27 31 30 30 30 30 31 30 28 28 30 29 29 29 29 31 31 27 26 28 26 25 26 26 25 24 23 22 21 22 23 24 25 25 26 26 27 28 28 29 30 30 31 31 31 31 30 28 30 31 31 31 31 31 31 32
48 47 48 46 40 36 35 35 38 45 45 44 44 42 41 39 35 35 35 35 34 33 32 28 26 26 20 17 19 28 30 28 29 28 30 30 29 29 30 29 30 28 25 26 28 32 29 27 28 27 26 27 27 26 26 27 27 27 27 26 26 25 25 25 25 26 26 25 24 23 23 26 29 30 30 30 30 30 30 31 31 31 32 32 32 32 31
47 48 45 38 36 36 36 37 45 45 45 44 43 35 34 35 34 32 32 34 31 30 31 29 28 27 24 23 27 29 28 28 27 27 28 30 26 25 28 26 28 25 23 21 26 31 25 27 27 27 27 26 26 26 27 28 27 28 27 27 27 26 27 27 27 26 26 25 24 23 22 23 23 25 25 27 29 31 31 31 31 32 32 32 32 32 31
47 38 36 37 36 37 44 45 45 44 41 37 36 33 32 33 32 30 32 30 30 31 30 29 30 27 25 24 24 25 29 26 26 25 28 29 29 25 26 25 26 18 15 18 23 26 22 19 23 26 25 26 26 26 27 28 27 28 28 28 27 27 27 28 28 29 28 28 28 28 29 29 29 29 28 28 28 28 29 29 32 32 32 33 32 32 32
42 36 36 36 36 41 43 47 45 34 35 36 35 31 30 29 30 30 28 27 27 27 29 28 28 26 26 25 23 24 30 29 28 29 28 27 29 25 21 16 25 18 16 17 25 26 24 23 25 23 18 19 25 27 28 27 28 28 28 27 26 27 26 27 28 29 29 30 30 30 31 30 31 31 30 30 30 30 30 30 30 31 31 31 31 32 32
44 43 42 45 44 45 38 36 35 35 34 33 31 31 32 31 30 30 29 26 26 27 26 26 24 25 26 26 26 27 27 28 28 28 26 23 27 23 19 24 24 14 12 24 26 25 24 20 22 20 23 24 24 26 25 24 26 26 25 24 25 26 27 27 27 27 28 29 29 30 30 30 31 31 31 31 31 31 31 31 31 31 31 31 31 32 31
47 47 44 40 35 34 35 34 35 35 32 32 30 28 29 26 27 27 27 29 28 26 26 27 28 27 27 29 27 29 28 30 29 27 24 22 27 25 23 23 18 13 20 25 24 23 21 21 20 15 17 25 27 23 22 21 21 23 23 25 26 27 27 27 28 28 29 28 30 30 31 31 31 31 30 30 29 30 30 31 31 31 31 31 31 32 32
45 37 36 35 35 34 35 29 34 32 32 32 30 26 26 25 28 27 25 27 28 27 26 23 26 26 26 29 28 29 29 29 31 25 25 27 24 20 20 18 20 25 25 20 19 20 20 22 20 15 17 23 25 22 21 22 23 25 24 25 26 27 27 28 28 29 29 29 28 30 30 30 29 31 30 28 28 29 30 30 31 31 31 30 31 32 32
36 35 34 33 31 33 31 26 35 32 28 30 32 31 29 26 27 28 29 27 27 27 29 28 28 27 29 30 29 29 30 26 29 25 19 26 22 23 18 18 22 22 20 17 20 21 20 21 21 21 23 23 23 23 23 24 24 24 25 26 25 25 26 25 27 28 29 29 29 30 30 30 29 30 30 30 29 29 29 30 31 29 30 30 31 32 32
35 34 32 30 28 31 30 27 30 29 32 31 31 31 31 31 30 29 27 27 28 28 28 28 28 29 29 31 29 27 30 28 26 25 27 25 22 20 24 25 23 19 17 19 17 17 15 15 13 23 23 24 24 25 25 26 27 26 24 24 24 26 26 27 28 29 28 29 29 30 30 29 29 30 30 30 30 30 30 31 31 31 30 30 31 32 31
34 32 31 30 29 30 32 28 27 28 30 31 32 31 32 30 29 28 26 27 28 30 29 30 29 29 29 30 26 27 31 30 26 27 27 23 22 22 26 21 16 17 14 13 15 15 16 16 20 20 24 25 26 26 26 27 27 26 26 26 26 25 25 26 27 27 28 29 30 30 29 29 29 29 29 30 30 30 30 30 30 30 30 31 32 31 31
33 34 31 28 27 30 29 29 30 31 32 31 31 31 30 29 29 29 27 29 30 30 28 28 28 30 27 30 29 28 30 29 25 27 26 25 25 23 23 22 21 21 21 17 17 19 18 26 22 23 23 24 25 25 27 27 26 26 26 27 26 26 26 27 28 27 29 29 30 30 30 30 30 30 29 29 30 31 31 30 30 29 30 30 31 31 30
34 32 31 30 30 30 28 29 29 29 29 30 31 30 29 29 30 30 29 28 28 28 30 29 29 29 28 30 30 30 28 30 24 23 27 25 23 20 22 21 21 19 22 22 19 19 19 25 24 24 24 25 25 25 27 26 26 26 27 27 27 28 27 28 28 28 29 30 30 30 30 30 31 31 30 30 29 30 30 29 29 29 30 30 30 30 30
33 32 32 31 30 30 30 31 30 28 29 29 29 30 30 30 30 30 30 27 29 29 28 28 29 27 27 25 22 26 28 29 26 25 26 24 24 25 23 20 20 19 21 23 23 24 24 26 25 23 24 25 27 26 26 27 27 29 28 28 28 29 28 29 29 30 30 30 30 30 30 31 30 30 30 30 30 30 30 30 30 30 30 30 30 30 30
34 33 33 33 31 29 28 25 25 26 26 27 28 29 29 29 29 30 30 29 28 28 27 26 26 25 24 23 22 21 21 27 23 22 23 23 26 24 22 21 22 23 23 23 27 26 26 24 25 26 26 25 26 27 27 28 27 28 28 28 29 29 30 30 30 31 30 31 30 29 30 30 31 31 31 31 31 30 30 30 30 30 30 31 30 30 29
32 29 30 32 32 32 32 31 31 30 29 29 28 29 30 30 30 30 30 31 30 29 28 28 27 25 22 23 23 24 24 25 23 23 23 24 25 24 23 24 24 25 25 26 28 28 27 27 26 26 26 27 28 28 27 27 27 28 27 28 29 30 30 31 31 31 31 31 31 30 31 30 31 31 31 30 30 29 29 29 30 30 30 30 30 30 30